Regional Weather Roundup
Issued by NWS

Home | Current Version | Previous Version | Text Only | Print | Product List | Glossary On
Versions: 1 2 3 4 5 6 7 8 9 10 11 12 13 14 15 16 17 18 19 20 21 22 23 24 25 26 27 28 29 30 31 32 33 34 35 36 37 38 39 40 41 42 43 44 45 46 47 48 49 50
000
ASUS43 KMPX 261710
RWRMN
WEATHER ROUNDUP FOR MINNESOTA
NATIONAL WEATHER SERVICE TWIN CITIES/CHANHASSEN MN
1200 PM CDT FRI AUG 26 2016


NOTE: "FAIR" INDICATES FEW OR NO CLOUDS BELOW 12,000 FEET WITH NO
SIGNIFICANT WEATHER AND/OR OBSTRUCTIONS TO VISIBILITY. N/A MEANS
CURRENT SKY AND/OR WEATHER CONDITIONS ARE NOT AVAILABLE.

MNZ060>063-068>070-261800-
   Twin Cities Metro

CITY           SKY/WX    TMP DP  RH WIND       PRES   REMARKS
TWIN CITIES    CLOUDY    69  52  54 CALM      30.18F
ST PAUL        CLOUDY    69  54  58 E5        30.18F
CRYSTAL        CLOUDY    69  50  50 CALM      30.16F
BLAINE         PTSUNNY   72  54  53 S6        30.18S
LAKEVILLE      CLOUDY    66  55  68 CALM      30.18F
EDEN PRAIRIE   CLOUDY    71  55  56 VRB5      30.17F
LAKEVILLE      CLOUDY    66  55  68 CALM      30.18F
SOUTH ST PAUL  CLOUDY    69  54  60 SE3       30.18F
LAKE ELMO      FAIR      68  54  60 SE6       30.19F
$$
MNZ001>005-007-008-013>017-022>024-027-028-261800-
   Northwest Minnesota

CITY           SKY/WX    TMP DP  RH WIND       PRES   REMARKS
BEMIDJI        SUNNY     70  49  47 S6        30.12F
HALLOCK        SUNNY     73  50  43 S10       30.03F
ROSEAU         SUNNY     72  52  49 S7        30.06F
WARROAD        SUNNY     70  54  56 SW3       30.08S
THIEF RVR FALL SUNNY     70  52  52 S9        30.09F
CROOKSTON      CLOUDY    70  55  60 S13       30.09S
FOSSTON        SUNNY     70  52  52 S9        30.12S
DETROIT LAKES  SUNNY     70  50  49 SW7       30.14F
MOORHEAD       SUNNY     72  52  49 S12       30.12F
PARK RAPIDS    SUNNY     71  51  49 SW7       30.13F
MAHNOMEN       FAIR      69  54  59 SW10      30.12S
$$
MNZ006-009>011-018-025>026-261800-
   North Central Minnesota

CITY           SKY/WX    TMP DP  RH WIND       PRES   REMARKS
BAUDETTE       SUNNY     70  52  52 S8        30.09S
FLAG ISLAND    SUNNY     68  54  60 CALM      30.06S
INTL FALLS     SUNNY     69  52  54 SW8       30.10S
WASKISH        SUNNY     70  54  56 W8        30.10F
BIG FORK       SUNNY     72  52  49 SW5       30.12F
LONGVILLE      SUNNY     72  54  53 W3        30.14S
GRAND RAPIDS   MOSUNNY   69  53  56 VRB5      30.16S
CRANE LAKE     MOSUNNY   64  50  59 S2        30.14S
ORR            SUNNY     70  50  49 CALM      30.11S
COOK           MOSUNNY   68  50  52 S6        30.14S
WALKER         FAIR      69  48  46 W6        30.13S
$$
MNZ012-019>021-037-261800-
   Northeast Minnesota

CITY           SKY/WX    TMP DP  RH WIND       PRES   REMARKS
DULUTH         MOSUNNY   69  48  47 NW5       30.15F
ELY            MOSUNNY   64  48  55 S5        30.15S
HIBBING        MOSUNNY   66  49  54 VRB5      30.14F
EVELETH        MOSUNNY   68  47  46 W3        30.15F
DULUTH HARBOR  MOSUNNY   72  57  60 E6        30.15S
TWO HARBORS    MOSUNNY   72  59  64 S7        30.13F
SILVER BAY     PTSUNNY   66  55  68 E6        30.13F
GRAND MARAIS     N/A     62  49  62 VRB5      30.14S
G MARAIS ARPRT MOSUNNY   63  41  45 N3        30.16S
$$
MNZ029>031-032-039>041-046>048-054>057-064-261800-
   West Central Minnesota

CITY           SKY/WX    TMP DP  RH WIND       PRES   REMARKS
FERGUS FALLS   SUNNY     70  55  60 S5        30.16S
WHEATON        SUNNY     72  55  56 S5        30.16F
MORRIS         SUNNY     72  52  49 CALM      30.15F
ALEXANDRIA     SUNNY     69  51  52 VRB5      30.17F
ELBOW LAKE     FAIR      68  54  60 SW5       30.16S
WADENA         SUNNY     70  54  56 W5        30.14F
GLENWOOD       SUNNY     70  52  52 CALM      30.17F
APPLETON       SUNNY     70  54  56 SW5       30.16S
BENSON         MOSUNNY   70  52  52 W5        30.16F HAZE
ORTONVILLE     SUNNY     70  54  56 CALM      30.15F
MADISON        CLOUDY    70  54  56 SE5       30.16F
WILLMAR        FAIR      68  55  64 CALM      30.19S
$$
MNZ033>034-036-042>043-049>051-058-059-261800-
   Central Minnesota

CITY           SKY/WX    TMP DP  RH WIND       PRES   REMARKS
ST CLOUD       CLOUDY    69  54  58 S7        30.17S
SAUK CENTRE    FAIR      69  52  55 W3        30.17F
PAYNESVILLE    CLOUDY    69  52  53 S6        30.18F
AITKIN         SUNNY     72  48  43 W5        30.14F
PINE RIVER     SUNNY     70  54  56 SW6       30.17S
BRAINERD       SUNNY     70  50  49 W7        30.15F
STAPLES        SUNNY     70  46  43 SW5       30.14F
LONG PRAIRIE   FAIR      68  52  56 S5        30.17S
LITTLE FALLS   SUNNY     70  46  43 CALM      30.16F
LITCHFIELD     CLOUDY    70  57  64 SW3       30.18F
BUFFALO        CLOUDY    68  51  54 SE5       30.19F
MAPLE LAKE     CLOUDY    71  56  61 S5        30.19S
HUTCHINSON     MOSUNNY   68  57  68 S3        30.19F
$$
MNZ037-044-045-052-053-261800-
   East Central Minnesota

CITY           SKY/WX    TMP DP  RH WIND       PRES   REMARKS
PRINCETON      CLOUDY    72  54  53 CALM      30.17F
MORA           CLOUDY    70  52  52 S3        30.18S
CAMBRIDGE      MOSUNNY   72  54  53 S5        30.16S
RUSH CITY      CLOUDY    68  54  61 CALM      30.18S
MOOSE LAKE     SUNNY     68  50  52 CALM      30.13F
HINCKLEY       PTSUNNY   70  55  60 CALM      30.16F
CLOQUET        SUNNY     68  46  45 W8        30.15S
MCGREGOR       SUNNY     70  54  56 CALM      30.15F
$$
MNZ071>073-080-081-089-090-097-098-261800-
   Southwest Minnesota

CITY           SKY/WX    TMP DP  RH WIND       PRES   REMARKS
MONTEVIDEO     MOSUNNY   70  55  60 S3        30.19S
GRANITE FALLS  CLOUDY    68  58  68 SE7       30.19F
CANBY          CLOUDY    68  53  58 E3        30.18S
MARSHALL       MOSUNNY   66  56  70 SE6       30.18S
REDWOOD FALLS  MOSUNNY   67  55  65 S8        30.18F
OLIVIA         MOSUNNY   70  55  60 S3        30.17F
PIPESTONE      CLOUDY    66  54  63 SE6       30.18F
WINDOM         CLOUDY    66  54  63 SE5       30.18F
WORTHINGTON    CLOUDY    65  58  78 E6        30.19F
JACKSON          N/A     66  54  63 SE6       30.19F
TRACY          PTSUNNY   67  57  68 S3        30.18F
SLAYTON        CLOUDY    64  54  68 SE3       30.19F
$$
MNZ065>067-074>077-082>085-091>093-261800-
   South Central Minnesota

CITY           SKY/WX    TMP DP  RH WIND       PRES   REMARKS
MANKATO        PTSUNNY   66  55  68 SE3       30.18F
NEW ULM          N/A     66  55  68 SE3       30.17F
ST JAMES       CLOUDY    61  52  72 E3        30.19F
FAIRMONT       CLOUDY    65  57  75 SE7       30.19F
GLENCOE        CLOUDY    68  57  67 SE3       30.18F
FARIBAULT      PTSUNNY   68  55  64 CALM      30.19F
OWATONNA       PTSUNNY   66  55  68 CALM      30.19F
WASECA         PTSUNNY   64  55  72 SE3       30.21S
ALBERT LEA     CLOUDY    66  55  68 SE5       30.19F
$$
MNZ078>079-086>088-094>096-261800-
   Southeast Minnesota

CITY           SKY/WX    TMP DP  RH WIND       PRES   REMARKS
ROCHESTER      CLOUDY    68  58  70 SE5       30.20F
RED WING       PTSUNNY   70  52  52 CALM      30.17F
STANTON        PTSUNNY   68  54  60 CALM      30.18F
DODGE CENTER   CLOUDY    70  55  60 E5        30.20F
WINONA         CLOUDY    70  57  64 CALM      30.19F
AUSTIN         CLOUDY    66  55  68 CALM      30.18F
PRESTON        CLOUDY    65  56  72 CALM      30.20F
$$
ABBREVIATIONS USED IN REMARKS
   TC - TEMPERATURES IN CELSIUS
  WCI - WIND CHILL INDEX
   HX - HEAT INDEX
  VSB - VISIBILITY
$$




USA.gov is the U.S. government's official web portal to all federal, state and local government web resources and services.